A fact sheet with definitions and metadata for this dataset can be found at http://www.stateair.net/web/historical/1/3.html.,,,,,,,,,,
The U.S. Department of State Data Use Statement at http://www.stateair.net/web/historical/1/3.html applies to these and all data available from the Mission China air quality monitoring program.,,,,,,,,,,
,,,,,,,,,,
Site,Parameter,Date (LST),Year,Month,Day,Hour,Value,Unit,Duration,QC Name
Guangzhou,PM2.5,1/1/2015 0:00,2015,1,1,0,38,�g/m�,1 Hr,Valid
Guangzhou,PM2.5,1/1/2015 1:00,2015,1,1,1,40,�g/m�,1 Hr,Valid
Guangzhou,PM2.5,1/1/2015 2:00,2015,1,1,2,40,�g/m�,1 Hr,Valid
Guangzhou,PM2.5,1/1/2015 3:00,2015,1,1,3,34,�g/m�,1 Hr,Valid
Guangzhou,PM2.5,1/1/2015 4:00,2015,1,1,4,42,�g/m�,1 Hr,Valid
Guangzhou,PM2.5,1/1/2015 5:00,2015,1,1,5,44,�g/m�,1 Hr,Valid
Guangzhou,PM2.5,1/1/2015 6:00,2015,1,1,6,48,�g/m�,1 Hr,Valid
Guangzhou,PM2.5,1/1/2015 7:00,2015,1,1,7,50,�g/m�,1 Hr,Valid
Guangzhou,PM2.5,1/1/2015 8:00,2015,1,1,8,52,�g/m�,1 Hr,Valid
Guangzhou,PM2.5,1/1/2015 9:00,2015,1,1,9,48,�g/m�,1 Hr,Valid
Guangzhou,PM2.5,1/1/2015 10:00,2015,1,1,10,49,�g/m�,1 Hr,Valid
Guangzhou,PM2.5,1/1/2015 11:00,2015,1,1,11,47,�g/m�,1 Hr,Valid
Guangzhou,PM2.5,1/1/2015 12:00,2015,1,1,12,40,�g/m�,1 Hr,Valid
Guangzhou,PM2.5,1/1/2015 13:00,2015,1,1,13,47,�g/m�,1 Hr,Valid
Guangzhou,PM2.5,1/1/2015 14:00,2015,1,1,14,44,�g/m�,1 Hr,Valid
Guangzhou,PM2.5,1/1/2015 15:00,2015,1,1,15,50,�g/m�,1 Hr,Valid
Guangzhou,PM2.5,1/1/2015 16:00,2015,1,1,16,50,�g/m�,1 Hr,Valid
Guangzhou,PM2.5,1/1/2015 17:00,2015,1,1,17,51,�g/m�,1 Hr,Valid
Guangzhou,PM2.5,1/1/2015 18:00,2015,1,1,18,65,�g/m�,1 Hr,Valid
Guangzhou,PM2.5,1/1/2015 19:00,2015,1,1,19,71,�g/m�,1 Hr,Valid
Guangzhou,PM2.5,1/1/2015 20:00,2015,1,1,20,71,�g/m�,1 Hr,Valid
Guangzhou,PM2.5,1/1/2015 21:00,2015,1,1,21,69,�g/m�,1 Hr,Valid
Guangzhou,PM2.5,1/1/2015 22:00,2015,1,1,22,71,�g/m�,1 Hr,Valid
Guangzhou,PM2.5,1/1/2015 23:00,2015,1,1,23,59,�g/m�,1 Hr,Valid
Guangzhou,PM2.5,1/2/2015 0:00,2015,1,2,0,58,�g/m�,1 Hr,Valid
Guangzhou,PM2.5,1/2/2015 1:00,2015,1,2,1,55,�g/m�,1 Hr,Valid
Guangzhou,PM2.5,1/2/2015 2:00,2015,1,2,2,52,�g/m�,1 Hr,Valid
Guangzhou,PM2.5,1/2/2015 3:00,2015,1,2,3,46,�g/m�,1 Hr,Valid
Guangzhou,PM2.5,1/2/2015 4:00,2015,1,2,4,46,�g/m�,1 Hr,Valid
Guangzhou,PM2.5,1/2/2015 5:00,2015,1,2,5,41,�g/m�,1 Hr,Valid
Guangzhou,PM2.5,1/2/2015 6:00,2015,1,2,6,42,�g/m�,1 Hr,Valid
Guangzhou,PM2.5,1/2/2015 7:00,2015,1,2,7,35,�g/m�,1 Hr,Valid
Guangzhou,PM2.5,1/2/2015 8:00,2015,1,2,8,37,�g/m�,1 Hr,Valid
Guangzhou,PM2.5,1/2/2015 9:00,2015,1,2,9,41,�g/m�,1 Hr,Valid
Guangzhou,PM2.5,1/2/2015 10:00,2015,1,2,10,41,�g/m�,1 Hr,Valid
Guangzhou,PM2.5,1/2/2015 11:00,2015,1,2,11,37,�g/m�,1 Hr,Valid
Guangzhou,PM2.5,1/2/2015 12:00,2015,1,2,12,38,�g/m�,1 Hr,Valid
Guangzhou,PM2.5,1/2/2015 13:00,2015,1,2,13,42,�g/m�,1 Hr,Valid
Guangzhou,PM2.5,1/2/2015 14:00,2015,1,2,14,46,�g/m�,1 Hr,Valid
Guangzhou,PM2.5,1/2/2015 15:00,2015,1,2,15,46,�g/m�,1 Hr,Valid
Guangzhou,PM2.5,1/2/2015 16:00,2015,1,2,16,56,�g/m�,1 Hr,Valid
Guangzhou,PM2.5,1/2/2015 17:00,2015,1,2,17,63,�g/m�,1 Hr,Valid
Guangzhou,PM2.5,1/2/2015 18:00,2015,1,2,18,70,�g/m�,1 Hr,Valid
Guangzhou,PM2.5,1/2/2015 19:00,2015,1,2,19,75,�g/m�,1 Hr,Valid
Guangzhou,PM2.5,1/2/2015 20:00,2015,1,2,20,93,�g/m�,1 Hr,Valid
Guangzhou,PM2.5,1/2/2015 21:00,2015,1,2,21,118,�g/m�,1 Hr,Valid
Guangzhou,PM2.5,1/2/2015 22:00,2015,1,2,22,150,�g/m�,1 Hr,Valid
Guangzhou,PM2.5,1/2/2015 23:00,2015,1,2,23,134,�g/m�,1 Hr,Valid
Guangzhou,PM2.5,1/3/2015 0:00,2015,1,3,0,119,�g/m�,1 Hr,Valid
Guangzhou,PM2.5,1/3/2015 1:00,2015,1,3,1,114,�g/m�,1 Hr,Valid
Guangzhou,PM2.5,1/3/2015 2:00,2015,1,3,2,106,�g/m�,1 Hr,Valid
Guangzhou,PM2.5,1/3/2015 3:00,2015,1,3,3,107,�g/m�,1 Hr,Valid
Guangzhou,PM2.5,1/3/2015 4:00,2015,1,3,4,118,�g/m�,1 Hr,Valid
Guangzhou,PM2.5,1/3/2015 5:00,2015,1,3,5,126,�g/m�,1 Hr,Valid
Guangzhou,PM2.5,1/3/2015 6:00,2015,1,3,6,120,�g/m�,1 Hr,Valid
Guangzhou,PM2.5,1/3/2015 7:00,2015,1,3,7,126,�g/m�,1 Hr,Valid
Guangzhou,PM2.5,1/3/2015 8:00,2015,1,3,8,132,�g/m�,1 Hr,Valid
Guangzhou,PM2.5,1/3/2015 9:00,2015,1,3,9,129,�g/m�,1 Hr,Valid
Guangzhou,PM2.5,1/3/2015 10:00,2015,1,3,10,123,�g/m�,1 Hr,Valid
Guangzhou,PM2.5,1/3/2015 11:00,2015,1,3,11,116,�g/m�,1 Hr,Valid
Guangzhou,PM2.5,1/3/2015 12:00,2015,1,3,12,103,�g/m�,1 Hr,Valid
Guangzhou,PM2.5,1/3/2015 13:00,2015,1,3,13,104,�g/m�,1 Hr,Valid
Guangzhou,PM2.5,1/3/2015 14:00,2015,1,3,14,106,�g/m�,1 Hr,Valid
Guangzhou,PM2.5,1/3/2015 15:00,2015,1,3,15,100,�g/m�,1 Hr,Valid
Guangzhou,PM2.5,1/3/2015 16:00,2015,1,3,16,105,�g/m�,1 Hr,Valid
Guangzhou,PM2.5,1/3/2015 17:00,2015,1,3,17,102,�g/m�,1 Hr,Valid
Guangzhou,PM2.5,1/3/2015 18:00,2015,1,3,18,102,�g/m�,1 Hr,Valid
Guangzhou,PM2.5,1/3/2015 19:00,2015,1,3,19,113,�g/m�,1 Hr,Valid
Guangzhou,PM2.5,1/3/2015 20:00,2015,1,3,20,133,�g/m�,1 Hr,Valid
Guangzhou,PM2.5,1/3/2015 21:00,2015,1,3,21,152,�g/m�,1 Hr,Valid
Guangzhou,PM2.5,1/3/2015 22:00,2015,1,3,22,152,�g/m�,1 Hr,Valid
Guangzhou,PM2.5,1/3/2015 23:00,2015,1,3,23,91,�g/m�,1 Hr,Valid
Guangzhou,PM2.5,1/4/2015 0:00,2015,1,4,0,74,�g/m�,1 Hr,Valid
Guangzhou,PM2.5,1/4/2015 1:00,2015,1,4,1,65,�g/m�,1 Hr,Valid
Guangzhou,PM2.5,1/4/2015 2:00,2015,1,4,2,58,�g/m�,1 Hr,Valid
Guangzhou,PM2.5,1/4/2015 3:00,2015,1,4,3,71,�g/m�,1 Hr,Valid
Guangzhou,PM2.5,1/4/2015 4:00,2015,1,4,4,100,�g/m�,1 Hr,Valid
Guangzhou,PM2.5,1/4/2015 5:00,2015,1,4,5,93,�g/m�,1 Hr,Valid
Guangzhou,PM2.5,1/4/2015 6:00,2015,1,4,6,87,�g/m�,1 Hr,Valid
Guangzhou,PM2.5,1/4/2015 7:00,2015,1,4,7,73,�g/m�,1 Hr,Valid
Guangzhou,PM2.5,1/4/2015 8:00,2015,1,4,8,67,�g/m�,1 Hr,Valid
Guangzhou,PM2.5,1/4/2015 9:00,2015,1,4,9,68,�g/m�,1 Hr,Valid
Guangzhou,PM2.5,1/4/2015 10:00,2015,1,4,10,79,�g/m�,1 Hr,Valid
Guangzhou,PM2.5,1/4/2015 11:00,2015,1,4,11,88,�g/m�,1 Hr,Valid
Guangzhou,PM2.5,1/4/2015 12:00,2015,1,4,12,88,�g/m�,1 Hr,Valid
Guangzhou,PM2.5,1/4/2015 13:00,2015,1,4,13,70,�g/m�,1 Hr,Valid
Guangzhou,PM2.5,1/4/2015 14:00,2015,1,4,14,69,�g/m�,1 Hr,Valid
Guangzhou,PM2.5,1/4/2015 15:00,2015,1,4,15,66,�g/m�,1 Hr,Valid
Guangzhou,PM2.5,1/4/2015 16:00,2015,1,4,16,69,�g/m�,1 Hr,Valid
Guangzhou,PM2.5,1/4/2015 17:00,2015,1,4,17,64,�g/m�,1 Hr,Valid
Guangzhou,PM2.5,1/4/2015 18:00,2015,1,4,18,88,�g/m�,1 Hr,Valid
Guangzhou,PM2.5,1/4/2015 19:00,2015,1,4,19,100,�g/m�,1 Hr,Valid
Guangzhou,PM2.5,1/4/2015 20:00,2015,1,4,20,83,�g/m�,1 Hr,Valid
Guangzhou,PM2.5,1/4/2015 21:00,2015,1,4,21,68,�g/m�,1 Hr,Valid
Guangzhou,PM2.5,1/4/2015 22:00,2015,1,4,22,73,�g/m�,1 Hr,Valid
Guangzhou,PM2.5,1/4/2015 23:00,2015,1,4,23,70,�g/m�,1 Hr,Valid
Guangzhou,PM2.5,1/5/2015 0:00,2015,1,5,0,64,�g/m�,1 Hr,Valid
Guangzhou,PM2.5,1/5/2015 1:00,2015,1,5,1,80,�g/m�,1 Hr,Valid
Guangzhou,PM2.5,1/5/2015 2:00,2015,1,5,2,83,�g/m�,1 Hr,Valid
Guangzhou,PM2.5,1/5/2015 3:00,2015,1,5,3,79,�g/m�,1 Hr,Valid
Guangzhou,PM2.5,1/5/2015 4:00,2015,1,5,4,69,�g/m�,1 Hr,Valid
Guangzhou,PM2.5,1/5/2015 5:00,2015,1,5,5,65,�g/m�,1 Hr,Valid
Guangzhou,PM2.5,1/5/2015 6:00,2015,1,5,6,73,�g/m�,1 Hr,Valid
Guangzhou,PM2.5,1/5/2015 7:00,2015,1,5,7,84,�g/m�,1 Hr,Valid
Guangzhou,PM2.5,1/5/2015 8:00,2015,1,5,8,87,�g/m�,1 Hr,Valid
Guangzhou,PM2.5,1/5/2015 9:00,2015,1,5,9,91,�g/m�,1 Hr,Valid
Guangzhou,PM2.5,1/5/2015 10:00,2015,1,5,10,94,�g/m�,1 Hr,Valid
Guangzhou,PM2.5,1/5/2015 11:00,2015,1,5,11,90,�g/m�,1 Hr,Valid
Guangzhou,PM2.5,1/5/2015 12:00,2015,1,5,12,101,�g/m�,1 Hr,Valid
Guangzhou,PM2.5,1/5/2015 13:00,2015,1,5,13,105,�g/m�,1 Hr,Valid
Guangzhou,PM2.5,1/5/2015 14:00,2015,1,5,14,85,�g/m�,1 Hr,Valid
Guangzhou,PM2.5,1/5/2015 15:00,2015,1,5,15,68,�g/m�,1 Hr,Valid
Guangzhou,PM2.5,1/5/2015 16:00,2015,1,5,16,66,�g/m�,1 Hr,Valid
Guangzhou,PM2.5,1/5/2015 17:00,2015,1,5,17,61,�g/m�,1 Hr,Valid
Guangzhou,PM2.5,1/5/2015 18:00,2015,1,5,18,55,�g/m�,1 Hr,Valid
Guangzhou,PM2.5,1/5/2015 19:00,2015,1,5,19,56,�g/m�,1 Hr,Valid
Guangzhou,PM2.5,1/5/2015 20:00,2015,1,5,20,59,�g/m�,1 Hr,Valid
Guangzhou,PM2.5,1/5/2015 21:00,2015,1,5,21,61,�g/m�,1 Hr,Valid
Guangzhou,PM2.5,1/5/2015 22:00,2015,1,5,22,70,�g/m�,1 Hr,Valid
Guangzhou,PM2.5,1/5/2015 23:00,2015,1,5,23,77,�g/m�,1 Hr,Valid
Guangzhou,PM2.5,1/6/2015 0:00,2015,1,6,0,93,�g/m�,1 Hr,Valid
Guangzhou,PM2.5,1/6/2015 1:00,2015,1,6,1,111,�g/m�,1 Hr,Valid
Guangzhou,PM2.5,1/6/2015 2:00,2015,1,6,2,113,�g/m�,1 Hr,Valid
Guangzhou,PM2.5,1/6/2015 3:00,2015,1,6,3,106,�g/m�,1 Hr,Valid
Guangzhou,PM2.5,1/6/2015 4:00,2015,1,6,4,77,�g/m�,1 Hr,Valid
Guangzhou,PM2.5,1/6/2015 5:00,2015,1,6,5,70,�g/m�,1 Hr,Valid
Guangzhou,PM2.5,1/6/2015 6:00,2015,1,6,6,58,�g/m�,1 Hr,Valid
Guangzhou,PM2.5,1/6/2015 7:00,2015,1,6,7,56,�g/m�,1 Hr,Valid
Guangzhou,PM2.5,1/6/2015 8:00,2015,1,6,8,69,�g/m�,1 Hr,Valid
Guangzhou,PM2.5,1/6/2015 9:00,2015,1,6,9,84,�g/m�,1 Hr,Valid
Guangzhou,PM2.5,1/6/2015 10:00,2015,1,6,10,103,�g/m�,1 Hr,Valid
Guangzhou,PM2.5,1/6/2015 11:00,2015,1,6,11,92,�g/m�,1 Hr,Valid
Guangzhou,PM2.5,1/6/2015 12:00,2015,1,6,12,76,�g/m�,1 Hr,Valid
Guangzhou,PM2.5,1/6/2015 13:00,2015,1,6,13,80,�g/m�,1 Hr,Valid
Guangzhou,PM2.5,1/6/2015 14:00,2015,1,6,14,85,�g/m�,1 Hr,Valid
Guangzhou,PM2.5,1/6/2015 15:00,2015,1,6,15,91,�g/m�,1 Hr,Valid
Guangzhou,PM2.5,1/6/2015 16:00,2015,1,6,16,94,�g/m�,1 Hr,Valid
Guangzhou,PM2.5,1/6/2015 17:00,2015,1,6,17,123,�g/m�,1 Hr,Valid
Guangzhou,PM2.5,1/6/2015 18:00,2015,1,6,18,161,�g/m�,1 Hr,Valid
Guangzhou,PM2.5,1/6/2015 19:00,2015,1,6,19,175,�g/m�,1 Hr,Valid
Guangzhou,PM2.5,1/6/2015 20:00,2015,1,6,20,187,�g/m�,1 Hr,Valid
Guangzhou,PM2.5,1/6/2015 21:00,2015,1,6,21,180,�g/m�,1 Hr,Valid
Guangzhou,PM2.5,1/6/2015 22:00,2015,1,6,22,146,�g/m�,1 Hr,Valid
Guangzhou,PM2.5,1/6/2015 23:00,2015,1,6,23,83,�g/m�,1 Hr,Valid
Guangzhou,PM2.5,1/7/2015 0:00,2015,1,7,0,61,�g/m�,1 Hr,Valid
Guangzhou,PM2.5,1/7/2015 1:00,2015,1,7,1,66,�g/m�,1 Hr,Valid
Guangzhou,PM2.5,1/7/2015 2:00,2015,1,7,2,74,�g/m�,1 Hr,Valid
Guangzhou,PM2.5,1/7/2015 3:00,2015,1,7,3,79,�g/m�,1 Hr,Valid
Guangzhou,PM2.5,1/7/2015 4:00,2015,1,7,4,86,�g/m�,1 Hr,Valid
Guangzhou,PM2.5,1/7/2015 5:00,2015,1,7,5,80,�g/m�,1 Hr,Valid
Guangzhou,PM2.5,1/7/2015 6:00,2015,1,7,6,72,�g/m�,1 Hr,Valid
Guangzhou,PM2.5,1/7/2015 7:00,2015,1,7,7,62,�g/m�,1 Hr,Valid
Guangzhou,PM2.5,1/7/2015 8:00,2015,1,7,8,50,�g/m�,1 Hr,Valid
Guangzhou,PM2.5,1/7/2015 9:00,2015,1,7,9,50,�g/m�,1 Hr,Valid
Guangzhou,PM2.5,1/7/2015 10:00,2015,1,7,10,48,�g/m�,1 Hr,Valid
Guangzhou,PM2.5,1/7/2015 11:00,2015,1,7,11,51,�g/m�,1 Hr,Valid
Guangzhou,PM2.5,1/7/2015 12:00,2015,1,7,12,41,�g/m�,1 Hr,Valid
Guangzhou,PM2.5,1/7/2015 13:00,2015,1,7,13,42,�g/m�,1 Hr,Valid
Guangzhou,PM2.5,1/7/2015 14:00,2015,1,7,14,36,�g/m�,1 Hr,Valid
Guangzhou,PM2.5,1/7/2015 15:00,2015,1,7,15,37,�g/m�,1 Hr,Valid
Guangzhou,PM2.5,1/7/2015 16:00,2015,1,7,16,38,�g/m�,1 Hr,Valid
Guangzhou,PM2.5,1/7/2015 17:00,2015,1,7,17,35,�g/m�,1 Hr,Valid
Guangzhou,PM2.5,1/7/2015 18:00,2015,1,7,18,37,�g/m�,1 Hr,Valid
Guangzhou,PM2.5,1/7/2015 19:00,2015,1,7,19,39,�g/m�,1 Hr,Valid
Guangzhou,PM2.5,1/7/2015 20:00,2015,1,7,20,41,�g/m�,1 Hr,Valid
Guangzhou,PM2.5,1/7/2015 21:00,2015,1,7,21,42,�g/m�,1 Hr,Valid
Guangzhou,PM2.5,1/7/2015 22:00,2015,1,7,22,42,�g/m�,1 Hr,Valid
Guangzhou,PM2.5,1/7/2015 23:00,2015,1,7,23,40,�g/m�,1 Hr,Valid
Guangzhou,PM2.5,1/8/2015 0:00,2015,1,8,0,41,�g/m�,1 Hr,Valid
Guangzhou,PM2.5,1/8/2015 1:00,2015,1,8,1,45,�g/m�,1 Hr,Valid
Guangzhou,PM2.5,1/8/2015 2:00,2015,1,8,2,47,�g/m�,1 Hr,Valid
Guangzhou,PM2.5,1/8/2015 3:00,2015,1,8,3,49,�g/m�,1 Hr,Valid
Guangzhou,PM2.5,1/8/2015 4:00,2015,1,8,4,43,�g/m�,1 Hr,Valid
Guangzhou,PM2.5,1/8/2015 5:00,2015,1,8,5,43,�g/m�,1 Hr,Valid
Guangzhou,PM2.5,1/8/2015 6:00,2015,1,8,6,42,�g/m�,1 Hr,Valid
Guangzhou,PM2.5,1/8/2015 7:00,2015,1,8,7,43,�g/m�,1 Hr,Valid
Guangzhou,PM2.5,1/8/2015 8:00,2015,1,8,8,47,�g/m�,1 Hr,Valid
Guangzhou,PM2.5,1/8/2015 9:00,2015,1,8,9,52,�g/m�,1 Hr,Valid
Guangzhou,PM2.5,1/8/2015 10:00,2015,1,8,10,55,�g/m�,1 Hr,Valid
Guangzhou,PM2.5,1/8/2015 11:00,2015,1,8,11,59,�g/m�,1 Hr,Valid
Guangzhou,PM2.5,1/8/2015 12:00,2015,1,8,12,59,�g/m�,1 Hr,Valid
Guangzhou,PM2.5,1/8/2015 13:00,2015,1,8,13,57,�g/m�,1 Hr,Valid
Guangzhou,PM2.5,1/8/2015 14:00,2015,1,8,14,50,�g/m�,1 Hr,Valid
Guangzhou,PM2.5,1/8/2015 15:00,2015,1,8,15,52,�g/m�,1 Hr,Valid
Guangzhou,PM2.5,1/8/2015 16:00,2015,1,8,16,54,�g/m�,1 Hr,Valid
Guangzhou,PM2.5,1/8/2015 17:00,2015,1,8,17,54,�g/m�,1 Hr,Valid
Guangzhou,PM2.5,1/8/2015 18:00,2015,1,8,18,62,�g/m�,1 Hr,Valid
Guangzhou,PM2.5,1/8/2015 19:00,2015,1,8,19,71,�g/m�,1 Hr,Valid
Guangzhou,PM2.5,1/8/2015 20:00,2015,1,8,20,-999,�g/m�,1 Hr,Missing
Guangzhou,PM2.5,1/8/2015 21:00,2015,1,8,21,-999,�g/m�,1 Hr,Missing
Guangzhou,PM2.5,1/8/2015 22:00,2015,1,8,22,-999,�g/m�,1 Hr,Missing
Guangzhou,PM2.5,1/8/2015 23:00,2015,1,8,23,60,�g/m�,1 Hr,Valid
Guangzhou,PM2.5,1/9/2015 0:00,2015,1,9,0,55,�g/m�,1 Hr,Valid
Guangzhou,PM2.5,1/9/2015 1:00,2015,1,9,1,51,�g/m�,1 Hr,Valid
Guangzhou,PM2.5,1/9/2015 2:00,2015,1,9,2,51,�g/m�,1 Hr,Valid
Guangzhou,PM2.5,1/9/2015 3:00,2015,1,9,3,53,�g/m�,1 Hr,Valid
Guangzhou,PM2.5,1/9/2015 4:00,2015,1,9,4,51,�g/m�,1 Hr,Valid
Guangzhou,PM2.5,1/9/2015 5:00,2015,1,9,5,54,�g/m�,1 Hr,Valid
Guangzhou,PM2.5,1/9/2015 6:00,2015,1,9,6,57,�g/m�,1 Hr,Valid
Guangzhou,PM2.5,1/9/2015 7:00,2015,1,9,7,54,�g/m�,1 Hr,Valid
Guangzhou,PM2.5,1/9/2015 8:00,2015,1,9,8,59,�g/m�,1 Hr,Valid
Guangzhou,PM2.5,1/9/2015 9:00,2015,1,9,9,53,�g/m�,1 Hr,Valid
Guangzhou,PM2.5,1/9/2015 10:00,2015,1,9,10,57,�g/m�,1 Hr,Valid
Guangzhou,PM2.5,1/9/2015 11:00,2015,1,9,11,61,�g/m�,1 Hr,Valid
Guangzhou,PM2.5,1/9/2015 12:00,2015,1,9,12,68,�g/m�,1 Hr,Valid
Guangzhou,PM2.5,1/9/2015 13:00,2015,1,9,13,68,�g/m�,1 Hr,Valid
Guangzhou,PM2.5,1/9/2015 14:00,2015,1,9,14,65,�g/m�,1 Hr,Valid
Guangzhou,PM2.5,1/9/2015 15:00,2015,1,9,15,67,�g/m�,1 Hr,Valid
Guangzhou,PM2.5,1/9/2015 16:00,2015,1,9,16,63,�g/m�,1 Hr,Valid
Guangzhou,PM2.5,1/9/2015 17:00,2015,1,9,17,64,�g/m�,1 Hr,Valid
Guangzhou,PM2.5,1/9/2015 18:00,2015,1,9,18,68,�g/m�,1 Hr,Valid
Guangzhou,PM2.5,1/9/2015 19:00,2015,1,9,19,73,�g/m�,1 Hr,Valid
Guangzhou,PM2.5,1/9/2015 20:00,2015,1,9,20,69,�g/m�,1 Hr,Valid
Guangzhou,PM2.5,1/9/2015 21:00,2015,1,9,21,72,�g/m�,1 Hr,Valid
Guangzhou,PM2.5,1/9/2015 22:00,2015,1,9,22,70,�g/m�,1 Hr,Valid
Guangzhou,PM2.5,1/9/2015 23:00,2015,1,9,23,73,�g/m�,1 Hr,Valid
Guangzhou,PM2.5,1/10/2015 0:00,2015,1,10,0,75,�g/m�,1 Hr,Valid
Guangzhou,PM2.5,1/10/2015 1:00,2015,1,10,1,73,�g/m�,1 Hr,Valid
Guangzhou,PM2.5,1/10/2015 2:00,2015,1,10,2,71,�g/m�,1 Hr,Valid
Guangzhou,PM2.5,1/10/2015 3:00,2015,1,10,3,62,�g/m�,1 Hr,Valid
Guangzhou,PM2.5,1/10/2015 4:00,2015,1,10,4,65,�g/m�,1 Hr,Valid
Guangzhou,PM2.5,1/10/2015 5:00,2015,1,10,5,57,�g/m�,1 Hr,Valid
Guangzhou,PM2.5,1/10/2015 6:00,2015,1,10,6,56,�g/m�,1 Hr,Valid
Guangzhou,PM2.5,1/10/2015 7:00,2015,1,10,7,55,�g/m�,1 Hr,Valid
Guangzhou,PM2.5,1/10/2015 8:00,2015,1,10,8,57,�g/m�,1 Hr,Valid
Guangzhou,PM2.5,1/10/2015 9:00,2015,1,10,9,58,�g/m�,1 Hr,Valid
Guangzhou,PM2.5,1/10/2015 10:00,2015,1,10,10,56,�g/m�,1 Hr,Valid
Guangzhou,PM2.5,1/10/2015 11:00,2015,1,10,11,47,�g/m�,1 Hr,Valid
Guangzhou,PM2.5,1/10/2015 12:00,2015,1,10,12,48,�g/m�,1 Hr,Valid
Guangzhou,PM2.5,1/10/2015 13:00,2015,1,10,13,48,�g/m�,1 Hr,Valid
Guangzhou,PM2.5,1/10/2015 14:00,2015,1,10,14,49,�g/m�,1 Hr,Valid
Guangzhou,PM2.5,1/10/2015 15:00,2015,1,10,15,57,�g/m�,1 Hr,Valid
Guangzhou,PM2.5,1/10/2015 16:00,2015,1,10,16,56,�g/m�,1 Hr,Valid
Guangzhou,PM2.5,1/10/2015 17:00,2015,1,10,17,53,�g/m�,1 Hr,Valid
Guangzhou,PM2.5,1/10/2015 18:00,2015,1,10,18,61,�g/m�,1 Hr,Valid
Guangzhou,PM2.5,1/10/2015 19:00,2015,1,10,19,71,�g/m�,1 Hr,Valid
Guangzhou,PM2.5,1/10/2015 20:00,2015,1,10,20,68,�g/m�,1 Hr,Valid
Guangzhou,PM2.5,1/10/2015 21:00,2015,1,10,21,67,�g/m�,1 Hr,Valid
Guangzhou,PM2.5,1/10/2015 22:00,2015,1,10,22,81,�g/m�,1 Hr,Valid
Guangzhou,PM2.5,1/10/2015 23:00,2015,1,10,23,75,�g/m�,1 Hr,Valid
Guangzhou,PM2.5,1/11/2015 0:00,2015,1,11,0,69,�g/m�,1 Hr,Valid
Guangzhou,PM2.5,1/11/2015 1:00,2015,1,11,1,73,�g/m�,1 Hr,Valid
Guangzhou,PM2.5,1/11/2015 2:00,2015,1,11,2,63,�g/m�,1 Hr,Valid
Guangzhou,PM2.5,1/11/2015 3:00,2015,1,11,3,53,�g/m�,1 Hr,Valid
Guangzhou,PM2.5,1/11/2015 4:00,2015,1,11,4,60,�g/m�,1 Hr,Valid
Guangzhou,PM2.5,1/11/2015 5:00,2015,1,11,5,53,�g/m�,1 Hr,Valid
Guangzhou,PM2.5,1/11/2015 6:00,2015,1,11,6,54,�g/m�,1 Hr,Valid
Guangzhou,PM2.5,1/11/2015 7:00,2015,1,11,7,56,�g/m�,1 Hr,Valid
Guangzhou,PM2.5,1/11/2015 8:00,2015,1,11,8,48,�g/m�,1 Hr,Valid
Guangzhou,PM2.5,1/11/2015 9:00,2015,1,11,9,50,�g/m�,1 Hr,Valid
Guangzhou,PM2.5,1/11/2015 10:00,2015,1,11,10,52,�g/m�,1 Hr,Valid
Guangzhou,PM2.5,1/11/2015 11:00,2015,1,11,11,53,�g/m�,1 Hr,Valid
Guangzhou,PM2.5,1/11/2015 12:00,2015,1,11,12,53,�g/m�,1 Hr,Valid
Guangzhou,PM2.5,1/11/2015 13:00,2015,1,11,13,59,�g/m�,1 Hr,Valid
Guangzhou,PM2.5,1/11/2015 14:00,2015,1,11,14,57,�g/m�,1 Hr,Valid
Guangzhou,PM2.5,1/11/2015 15:00,2015,1,11,15,57,�g/m�,1 Hr,Valid
Guangzhou,PM2.5,1/11/2015 16:00,2015,1,11,16,56,�g/m�,1 Hr,Valid
Guangzhou,PM2.5,1/11/2015 17:00,2015,1,11,17,60,�g/m�,1 Hr,Valid
Guangzhou,PM2.5,1/11/2015 18:00,2015,1,11,18,63,�g/m�,1 Hr,Valid
Guangzhou,PM2.5,1/11/2015 19:00,2015,1,11,19,64,�g/m�,1 Hr,Valid
Guangzhou,PM2.5,1/11/2015 20:00,2015,1,11,20,66,�g/m�,1 Hr,Valid
Guangzhou,PM2.5,1/11/2015 21:00,2015,1,11,21,70,�g/m�,1 Hr,Valid
Guangzhou,PM2.5,1/11/2015 22:00,2015,1,11,22,71,�g/m�,1 Hr,Valid
Guangzhou,PM2.5,1/11/2015 23:00,2015,1,11,23,70,�g/m�,1 Hr,Valid
Guangzhou,PM2.5,1/12/2015 0:00,2015,1,12,0,62,�g/m�,1 Hr,Valid
Guangzhou,PM2.5,1/12/2015 1:00,2015,1,12,1,72,�g/m�,1 Hr,Valid
Guangzhou,PM2.5,1/12/2015 2:00,2015,1,12,2,67,�g/m�,1 Hr,Valid
Guangzhou,PM2.5,1/12/2015 3:00,2015,1,12,3,57,�g/m�,1 Hr,Valid
Guangzhou,PM2.5,1/12/2015 4:00,2015,1,12,4,54,�g/m�,1 Hr,Valid
Guangzhou,PM2.5,1/12/2015 5:00,2015,1,12,5,49,�g/m�,1 Hr,Valid
Guangzhou,PM2.5,1/12/2015 6:00,2015,1,12,6,46,�g/m�,1 Hr,Valid
Guangzhou,PM2.5,1/12/2015 7:00,2015,1,12,7,42,�g/m�,1 Hr,Valid
Guangzhou,PM2.5,1/12/2015 8:00,2015,1,12,8,33,�g/m�,1 Hr,Valid
Guangzhou,PM2.5,1/12/2015 9:00,2015,1,12,9,34,�g/m�,1 Hr,Valid
Guangzhou,PM2.5,1/12/2015 10:00,2015,1,12,10,27,�g/m�,1 Hr,Valid
Guangzhou,PM2.5,1/12/2015 11:00,2015,1,12,11,17,�g/m�,1 Hr,Valid
Guangzhou,PM2.5,1/12/2015 12:00,2015,1,12,12,19,�g/m�,1 Hr,Valid
Guangzhou,PM2.5,1/12/2015 13:00,2015,1,12,13,13,�g/m�,1 Hr,Valid
Guangzhou,PM2.5,1/12/2015 14:00,2015,1,12,14,13,�g/m�,1 Hr,Valid
Guangzhou,PM2.5,1/12/2015 15:00,2015,1,12,15,12,�g/m�,1 Hr,Valid
Guangzhou,PM2.5,1/12/2015 16:00,2015,1,12,16,12,�g/m�,1 Hr,Valid
Guangzhou,PM2.5,1/12/2015 17:00,2015,1,12,17,16,�g/m�,1 Hr,Valid
Guangzhou,PM2.5,1/12/2015 18:00,2015,1,12,18,14,�g/m�,1 Hr,Valid
Guangzhou,PM2.5,1/12/2015 19:00,2015,1,12,19,18,�g/m�,1 Hr,Valid
Guangzhou,PM2.5,1/12/2015 20:00,2015,1,12,20,22,�g/m�,1 Hr,Valid
Guangzhou,PM2.5,1/12/2015 21:00,2015,1,12,21,23,�g/m�,1 Hr,Valid
Guangzhou,PM2.5,1/12/2015 22:00,2015,1,12,22,16,�g/m�,1 Hr,Valid
Guangzhou,PM2.5,1/12/2015 23:00,2015,1,12,23,17,�g/m�,1 Hr,Valid
Guangzhou,PM2.5,1/13/2015 0:00,2015,1,13,0,8,�g/m�,1 Hr,Valid
Guangzhou,PM2.5,1/13/2015 1:00,2015,1,13,1,8,�g/m�,1 Hr,Valid
Guangzhou,PM2.5,1/13/2015 2:00,2015,1,13,2,10,�g/m�,1 Hr,Valid
Guangzhou,PM2.5,1/13/2015 3:00,2015,1,13,3,13,�g/m�,1 Hr,Valid
Guangzhou,PM2.5,1/13/2015 4:00,2015,1,13,4,12,�g/m�,1 Hr,Valid
Guangzhou,PM2.5,1/13/2015 5:00,2015,1,13,5,11,�g/m�,1 Hr,Valid
Guangzhou,PM2.5,1/13/2015 6:00,2015,1,13,6,12,�g/m�,1 Hr,Valid
Guangzhou,PM2.5,1/13/2015 7:00,2015,1,13,7,11,�g/m�,1 Hr,Valid
Guangzhou,PM2.5,1/13/2015 8:00,2015,1,13,8,14,�g/m�,1 Hr,Valid
Guangzhou,PM2.5,1/13/2015 9:00,2015,1,13,9,18,�g/m�,1 Hr,Valid
Guangzhou,PM2.5,1/13/2015 10:00,2015,1,13,10,18,�g/m�,1 Hr,Valid
Guangzhou,PM2.5,1/13/2015 11:00,2015,1,13,11,17,�g/m�,1 Hr,Valid
Guangzhou,PM2.5,1/13/2015 12:00,2015,1,13,12,16,�g/m�,1 Hr,Valid
Guangzhou,PM2.5,1/13/2015 13:00,2015,1,13,13,17,�g/m�,1 Hr,Valid
Guangzhou,PM2.5,1/13/2015 14:00,2015,1,13,14,17,�g/m�,1 Hr,Valid
Guangzhou,PM2.5,1/13/2015 15:00,2015,1,13,15,17,�g/m�,1 Hr,Valid
Guangzhou,PM2.5,1/13/2015 16:00,2015,1,13,16,20,�g/m�,1 Hr,Valid
Guangzhou,PM2.5,1/13/2015 17:00,2015,1,13,17,21,�g/m�,1 Hr,Valid
Guangzhou,PM2.5,1/13/2015 18:00,2015,1,13,18,22,�g/m�,1 Hr,Valid
Guangzhou,PM2.5,1/13/2015 19:00,2015,1,13,19,22,�g/m�,1 Hr,Valid
Guangzhou,PM2.5,1/13/2015 20:00,2015,1,13,20,20,�g/m�,1 Hr,Valid
Guangzhou,PM2.5,1/13/2015 21:00,2015,1,13,21,22,�g/m�,1 Hr,Valid
Guangzhou,PM2.5,1/13/2015 22:00,2015,1,13,22,20,�g/m�,1 Hr,Valid
Guangzhou,PM2.5,1/13/2015 23:00,2015,1,13,23,19,�g/m�,1 Hr,Valid
Guangzhou,PM2.5,1/14/2015 0:00,2015,1,14,0,21,�g/m�,1 Hr,Valid
Guangzhou,PM2.5,1/14/2015 1:00,2015,1,14,1,19,�g/m�,1 Hr,Valid
Guangzhou,PM2.5,1/14/2015 2:00,2015,1,14,2,24,�g/m�,1 Hr,Valid
Guangzhou,PM2.5,1/14/2015 3:00,2015,1,14,3,25,�g/m�,1 Hr,Valid
Guangzhou,PM2.5,1/14/2015 4:00,2015,1,14,4,19,�g/m�,1 Hr,Valid
Guangzhou,PM2.5,1/14/2015 5:00,2015,1,14,5,21,�g/m�,1 Hr,Valid
Guangzhou,PM2.5,1/14/2015 6:00,2015,1,14,6,24,�g/m�,1 Hr,Valid
Guangzhou,PM2.5,1/14/2015 7:00,2015,1,14,7,22,�g/m�,1 Hr,Valid
Guangzhou,PM2.5,1/14/2015 8:00,2015,1,14,8,24,�g/m�,1 Hr,Valid
Guangzhou,PM2.5,1/14/2015 9:00,2015,1,14,9,23,�g/m�,1 Hr,Valid
Guangzhou,PM2.5,1/14/2015 10:00,2015,1,14,10,23,�g/m�,1 Hr,Valid
Guangzhou,PM2.5,1/14/2015 11:00,2015,1,14,11,17,�g/m�,1 Hr,Valid
Guangzhou,PM2.5,1/14/2015 12:00,2015,1,14,12,20,�g/m�,1 Hr,Valid
Guangzhou,PM2.5,1/14/2015 13:00,2015,1,14,13,21,�g/m�,1 Hr,Valid
Guangzhou,PM2.5,1/14/2015 14:00,2015,1,14,14,17,�g/m�,1 Hr,Valid
Guangzhou,PM2.5,1/14/2015 15:00,2015,1,14,15,22,�g/m�,1 Hr,Valid
Guangzhou,PM2.5,1/14/2015 16:00,2015,1,14,16,25,�g/m�,1 Hr,Valid
Guangzhou,PM2.5,1/14/2015 17:00,2015,1,14,17,27,�g/m�,1 Hr,Valid
Guangzhou,PM2.5,1/14/2015 18:00,2015,1,14,18,31,�g/m�,1 Hr,Valid
Guangzhou,PM2.5,1/14/2015 19:00,2015,1,14,19,38,�g/m�,1 Hr,Valid
Guangzhou,PM2.5,1/14/2015 20:00,2015,1,14,20,31,�g/m�,1 Hr,Valid
Guangzhou,PM2.5,1/14/2015 21:00,2015,1,14,21,27,�g/m�,1 Hr,Valid
Guangzhou,PM2.5,1/14/2015 22:00,2015,1,14,22,26,�g/m�,1 Hr,Valid
Guangzhou,PM2.5,1/14/2015 23:00,2015,1,14,23,29,�g/m�,1 Hr,Valid
Guangzhou,PM2.5,1/15/2015 0:00,2015,1,15,0,34,�g/m�,1 Hr,Valid
Guangzhou,PM2.5,1/15/2015 1:00,2015,1,15,1,36,�g/m�,1 Hr,Valid
Guangzhou,PM2.5,1/15/2015 2:00,2015,1,15,2,32,�g/m�,1 Hr,Valid
Guangzhou,PM2.5,1/15/2015 3:00,2015,1,15,3,30,�g/m�,1 Hr,Valid
Guangzhou,PM2.5,1/15/2015 4:00,2015,1,15,4,34,�g/m�,1 Hr,Valid
Guangzhou,PM2.5,1/15/2015 5:00,2015,1,15,5,35,�g/m�,1 Hr,Valid
Guangzhou,PM2.5,1/15/2015 6:00,2015,1,15,6,34,�g/m�,1 Hr,Valid
Guangzhou,PM2.5,1/15/2015 7:00,2015,1,15,7,35,�g/m�,1 Hr,Valid
Guangzhou,PM2.5,1/15/2015 8:00,2015,1,15,8,37,�g/m�,1 Hr,Valid
Guangzhou,PM2.5,1/15/2015 9:00,2015,1,15,9,38,�g/m�,1 Hr,Valid
Guangzhou,PM2.5,1/15/2015 10:00,2015,1,15,10,38,�g/m�,1 Hr,Valid
Guangzhou,PM2.5,1/15/2015 11:00,2015,1,15,11,33,�g/m�,1 Hr,Valid
Guangzhou,PM2.5,1/15/2015 12:00,2015,1,15,12,35,�g/m�,1 Hr,Valid
Guangzhou,PM2.5,1/15/2015 13:00,2015,1,15,13,38,�g/m�,1 Hr,Valid
Guangzhou,PM2.5,1/15/2015 14:00,2015,1,15,14,47,�g/m�,1 Hr,Valid
Guangzhou,PM2.5,1/15/2015 15:00,2015,1,15,15,62,�g/m�,1 Hr,Valid
Guangzhou,PM2.5,1/15/2015 16:00,2015,1,15,16,48,�g/m�,1 Hr,Valid
Guangzhou,PM2.5,1/15/2015 17:00,2015,1,15,17,48,�g/m�,1 Hr,Valid
Guangzhou,PM2.5,1/15/2015 18:00,2015,1,15,18,59,�g/m�,1 Hr,Valid
Guangzhou,PM2.5,1/15/2015 19:00,2015,1,15,19,88,�g/m�,1 Hr,Valid
Guangzhou,PM2.5,1/15/2015 20:00,2015,1,15,20,101,�g/m�,1 Hr,Valid
Guangzhou,PM2.5,1/15/2015 21:00,2015,1,15,21,92,�g/m�,1 Hr,Valid
Guangzhou,PM2.5,1/15/2015 22:00,2015,1,15,22,92,�g/m�,1 Hr,Valid
Guangzhou,PM2.5,1/15/2015 23:00,2015,1,15,23,100,�g/m�,1 Hr,Valid
Guangzhou,PM2.5,1/16/2015 0:00,2015,1,16,0,98,�g/m�,1 Hr,Valid
Guangzhou,PM2.5,1/16/2015 1:00,2015,1,16,1,133,�g/m�,1 Hr,Valid
Guangzhou,PM2.5,1/16/2015 2:00,2015,1,16,2,126,�g/m�,1 Hr,Valid
Guangzhou,PM2.5,1/16/2015 3:00,2015,1,16,3,110,�g/m�,1 Hr,Valid
Guangzhou,PM2.5,1/16/2015 4:00,2015,1,16,4,84,�g/m�,1 Hr,Valid
Guangzhou,PM2.5,1/16/2015 5:00,2015,1,16,5,45,�g/m�,1 Hr,Valid
Guangzhou,PM2.5,1/16/2015 6:00,2015,1,16,6,39,�g/m�,1 Hr,Valid